QPF
0.01 0.00 0.01 0.01 0.01 0.01 0.01 0.01 0.02 0.02 0.01 0.01 0.02 0.01 0.02 0.02 0.02 0.02 0.02 0.01 0.02 0.02 0.02 0.02 0.01 0.02 0.02 0.01 0.01 0.01 0.02 0.02 0.02 0.02 0.02 0.03 0.02 0.01 0.01 0.02 0.02 0.02 0.02
0.01 0.01 0.01 0.01 0.01 0.01 0.01 0.01 0.01 0.01 0.01 0.01 0.02 0.01 0.02 0.03 0.02 0.02 0.03 0.03 0.03 0.03 0.03 0.04 0.03 0.03 0.03 0.02 0.01 0.01 0.02 0.02 0.02 0.03 0.03 0.04 0.04 0.03 0.03 0.03 0.03 0.02 0.03
0.02 0.01 0.01 0.01 0.01 0.01 0.01 0.02 0.02 0.02 0.03 0.03 0.03 0.02 0.02 0.03 0.03 0.02 0.03 0.04 0.03 0.03 0.03 0.05 0.06 0.06 0.06 0.04 0.02 0.02 0.03 0.03 0.03 0.03 0.02 0.03 0.03 0.03 0.03 0.03 0.04 0.03 0.03
0.03 0.02 0.01 0.01 0.02 0.01 0.02 0.03 0.03 0.03 0.04 0.04 0.03 0.04 0.03 0.03 0.03 0.02 0.03 0.03 0.03 0.04 0.04 0.05 0.07 0.08 0.08 0.07 0.05 0.04 0.05 0.06 0.06 0.04 0.04 0.04 0.03 0.03 0.02 0.03 0.03 0.03 0.03
0.03 0.01 0.01 0.02 0.01 0.02 0.02 0.03 0.03 0.04 0.05 0.05 0.05 0.04 0.04 0.04 0.03 0.03 0.04 0.04 0.03 0.04 0.05 0.06 0.08 0.08 0.08 0.10 0.10 0.09 0.11 0.11 0.10 0.08 0.08 0.08 0.05 0.04 0.04 0.04 0.04 0.04 0.03
0.02 0.01 0.01 0.01 0.01 0.02 0.03 0.03 0.05 0.05 0.05 0.07 0.08 0.06 0.06 0.06 0.06 0.05 0.05 0.06 0.04 0.04 0.07 0.10 0.09 0.09 0.11 0.14 0.15 0.16 0.17 0.18 0.14 0.13 0.10 0.08 0.08 0.08 0.07 0.06 0.05 0.05 0.05
0.02 0.02 0.03 0.02 0.02 0.02 0.02 0.03 0.06 0.08 0.05 0.06 0.07 0.07 0.05 0.05 0.05 0.04 0.04 0.05 0.06 0.06 0.06 0.09 0.09 0.07 0.08 0.11 0.13 0.17 0.19 0.19 0.19 0.18 0.15 0.13 0.13 0.12 0.11 0.09 0.08 0.08 0.08
0.02 0.03 0.04 0.04 0.03 0.02 0.02 0.04 0.06 0.07 0.06 0.06 0.06 0.05 0.03 0.03 0.04 0.04 0.06 0.06 0.07 0.07 0.07 0.08 0.08 0.07 0.08 0.07 0.10 0.13 0.17 0.19 0.20 0.20 0.19 0.18 0.15 0.13 0.11 0.09 0.08 0.07 0.07
0.02 0.03 0.03 0.03 0.03 0.02 0.03 0.05 0.05 0.06 0.06 0.05 0.04 0.04 0.03 0.03 0.05 0.06 0.08 0.08 0.08 0.07 0.07 0.07 0.07 0.07 0.07 0.07 0.08 0.10 0.13 0.17 0.18 0.18 0.19 0.15 0.11 0.09 0.09 0.09 0.08 0.07 0.06
0.03 0.05 0.03 0.03 0.05 0.05 0.04 0.05 0.04 0.05 0.06 0.05 0.04 0.04 0.04 0.03 0.04 0.06 0.07 0.08 0.08 0.08 0.08 0.09 0.08 0.08 0.08 0.08 0.09 0.10 0.13 0.13 0.14 0.13 0.14 0.13 0.13 0.12 0.11 0.12 0.12 0.12 0.10
0.03 0.04 0.03 0.04 0.04 0.05 0.04 0.03 0.03 0.04 0.05 0.05 0.05 0.05 0.04 0.04 0.04 0.05 0.07 0.09 0.10 0.09 0.08 0.08 0.07 0.08 0.08 0.08 0.08 0.10 0.09 0.10 0.10 0.10 0.11 0.12 0.12 0.14 0.15 0.15 0.15 0.14 0.13
0.03 0.03 0.02 0.03 0.04 0.05 0.05 0.05 0.05 0.04 0.03 0.03 0.04 0.04 0.04 0.05 0.06 0.05 0.05 0.07 0.08 0.07 0.05 0.05 0.05 0.07 0.07 0.08 0.07 0.07 0.07 0.07 0.07 0.07 0.07 0.09 0.09 0.10 0.12 0.13 0.14 0.14 0.14
0.03 0.03 0.04 0.04 0.05 0.06 0.07 0.07 0.06 0.03 0.03 0.04 0.04 0.04 0.03 0.05 0.06 0.05 0.06 0.05 0.04 0.03 0.03 0.04 0.04 0.05 0.06 0.05 0.05 0.06 0.08 0.07 0.07 0.05 0.04 0.04 0.06 0.07 0.08 0.09 0.11 0.13 0.14
0.05 0.06 0.07 0.08 0.08 0.08 0.09 0.07 0.06 0.05 0.04 0.05 0.06 0.06 0.05 0.06 0.07 0.07 0.06 0.05 0.04 0.04 0.03 0.03 0.03 0.03 0.03 0.03 0.04 0.07 0.09 0.07 0.06 0.07 0.06 0.05 0.04 0.05 0.07 0.08 0.10 0.11 0.12
0.05 0.06 0.07 0.09 0.08 0.08 0.09 0.08 0.06 0.06 0.07 0.07 0.06 0.07 0.05 0.04 0.05 0.07 0.05 0.05 0.05 0.05 0.05 0.04 0.04 0.05 0.04 0.04 0.05 0.04 0.04 0.06 0.07 0.09 0.10 0.09 0.08 0.07 0.07 0.06 0.06 0.06 0.08
0.05 0.05 0.05 0.06 0.06 0.06 0.07 0.07 0.06 0.07 0.07 0.06 0.06 0.06 0.04 0.03 0.03 0.04 0.05 0.08 0.08 0.06 0.05 0.05 0.04 0.04 0.03 0.03 0.04 0.04 0.05 0.07 0.07 0.07 0.09 0.09 0.08 0.07 0.06 0.06 0.05 0.05 0.05
0.05 0.08 0.10 0.11 0.10 0.07 0.07 0.06 0.05 0.06 0.06 0.06 0.07 0.07 0.06 0.05 0.05 0.05 0.05 0.06 0.06 0.06 0.05 0.05 0.04 0.04 0.03 0.03 0.04 0.04 0.03 0.02 0.03 0.07 0.08 0.09 0.07 0.05 0.05 0.05 0.04 0.03 0.03
0.05 0.05 0.07 0.11 0.12 0.11 0.08 0.06 0.05 0.05 0.05 0.06 0.06 0.07 0.05 0.06 0.06 0.05 0.05 0.05 0.05 0.05 0.05 0.05 0.04 0.03 0.03 0.02 0.04 0.04 0.02 0.01 0.02 0.03 0.03 0.03 0.04 0.04 0.05 0.05 0.03 0.02 0.02
0.02 0.03 0.04 0.05 0.05 0.06 0.05 0.05 0.05 0.05 0.05 0.05 0.05 0.05 0.04 0.05 0.05 0.05 0.05 0.04 0.04 0.04 0.04 0.03 0.02 0.02 0.01 0.02 0.06 0.05 0.03 0.02 0.01 0.01 0.02 0.02 0.02 0.02 0.02 0.01 0.01 0.01 0.01
0.03 0.03 0.04 0.04 0.03 0.03 0.03 0.03 0.03 0.03 0.04 0.04 0.03 0.04 0.04 0.03 0.03 0.03 0.03 0.03 0.03 0.03 0.03 0.03 0.03 0.03 0.02 0.03 0.04 0.04 0.04 0.03 0.02 0.01 0.01 0.01 0.01 0.01 0.01 0.01 0.01 0.02 0.02
0.04 0.04 0.04 0.04 0.03 0.01 0.01 0.01 0.01 0.01 0.01 0.01 0.01 0.01 0.01 0.01 0.02 0.02 0.01 0.02 0.03 0.04 0.04 0.04 0.03 0.03 0.04 0.04 0.04 0.03 0.06 0.07 0.04 0.02 0.02 0.01 0.01 0.01 0.01 0.01 0.02 0.02 0.02
0.04 0.02 0.02 0.02 0.02 0.01 0.01 0.01 0.01 0.01 0.00 0.01 0.01 0.01 0.01 0.01 0.02 0.02 0.01 0.02 0.03 0.03 0.03 0.03 0.04 0.04 0.04 0.03 0.03 0.03 0.03 0.05 0.06 0.04 0.03 0.03 0.02 0.02 0.01 0.02 0.02 0.02 0.02
0.04 0.02 0.01 0.01 0.01 0.01 0.01 0.01 0.01 0.01 0.00 0.01 0.01 0.02 0.01 0.01 0.02 0.03 0.02 0.02 0.02 0.03 0.03 0.04 0.04 0.03 0.02 0.02 0.03 0.03 0.03 0.03 0.05 0.04 0.03 0.03 0.02 0.02 0.01 0.01 0.01 0.02 0.02
0.03 0.01 0.01 0.01 0.00 0.00 0.01 0.01 0.00 0.00 0.00 0.01 0.01 0.02 0.01 0.01 0.01 0.02 0.02 0.02 0.04 0.05 0.07 0.05 0.03 0.03 0.02 0.02 0.03 0.03 0.03 0.03 0.03 0.02 0.02 0.02 0.02 0.02 0.01 0.00 0.00 0.00 0.01
0.02 0.01 0.01 0.00 0.00 0.00 0.00 0.00 0.00 0.00 0.00 0.00 0.00 0.01 0.01 0.01 0.01 0.02 0.02 0.02 0.03 0.04 0.04 0.03 0.02 0.02 0.02 0.02 0.02 0.03 0.03 0.02 0.01 0.01 0.00 0.01 0.01 0.01 0.01 0.01 0.00 0.01 0.01
0.01 0.01 0.00 0.00 0.00 0.00 0.00 0.00 0.00 0.01 0.01 0.01 0.00 0.00 0.00 0.00 0.01 0.01 0.01 0.02 0.02 0.02 0.03 0.03 0.03 0.03 0.02 0.02 0.01 0.01 0.01 0.01 0.01 0.00 0.00 0.00 0.01 0.01 0.01 0.01 0.00 0.00 0.00
MSLP
1017.53 1017.61 1017.62 1017.57 1017.51 1017.45 1017.44 1017.48 1017.59 1017.75 1017.94 1018.16 1018.36 1018.55 1018.72 1018.88 1019.04 1019.20 1019.37 1019.55 1019.72 1019.88 1020.04 1020.18 1020.30 1020.42 1020.55 1020.69 1020.84 1021.00 1021.17 1021.34 1021.50 1021.65 1021.78 1021.90 1022.01 1022.11 1022.22 1022.32 1022.42 1022.52 1022.62
1017.51 1017.61 1017.64 1017.63 1017.58 1017.55 1017.56 1017.61 1017.73 1017.89 1018.09 1018.29 1018.48 1018.66 1018.80 1018.93 1019.05 1019.18 1019.32 1019.48 1019.65 1019.84 1020.02 1020.20 1020.37 1020.52 1020.67 1020.81 1020.94 1021.07 1021.20 1021.33 1021.45 1021.57 1021.69 1021.81 1021.93 1022.05 1022.17 1022.29 1022.41 1022.52 1022.62
1017.36 1017.47 1017.54 1017.56 1017.57 1017.58 1017.63 1017.71 1017.85 1018.02 1018.22 1018.41 1018.59 1018.74 1018.86 1018.96 1019.04 1019.13 1019.23 1019.36 1019.52 1019.69 1019.89 1020.08 1020.28 1020.45 1020.61 1020.74 1020.86 1020.96 1021.05 1021.14 1021.23 1021.34 1021.45 1021.57 1021.71 1021.86 1022.00 1022.15 1022.29 1022.42 1022.54
1017.09 1017.22 1017.32 1017.40 1017.47 1017.54 1017.63 1017.76 1017.92 1018.10 1018.30 1018.49 1018.66 1018.80 1018.90 1018.96 1019.01 1019.06 1019.12 1019.21 1019.33 1019.48 1019.66 1019.85 1020.03 1020.21 1020.36 1020.48 1020.58 1020.65 1020.72 1020.79 1020.86 1020.96 1021.08 1021.22 1021.38 1021.56 1021.73 1021.90 1022.07 1022.22 1022.36
1016.76 1016.89 1017.03 1017.16 1017.29 1017.42 1017.56 1017.72 1017.90 1018.10 1018.30 1018.49 1018.66 1018.80 1018.90 1018.96 1018.99 1019.01 1019.04 1019.08 1019.15 1019.25 1019.38 1019.53 1019.69 1019.84 1019.96 1020.07 1020.15 1020.21 1020.26 1020.32 1020.40 1020.50 1020.63 1020.80 1020.98 1021.18 1021.38 1021.57 1021.75 1021.91 1022.06
1016.42 1016.55 1016.71 1016.87 1017.04 1017.22 1017.40 1017.58 1017.77 1017.98 1018.19 1018.39 1018.58 1018.74 1018.86 1018.94 1018.98 1019.00 1019.00 1019.00 1019.02 1019.06 1019.12 1019.21 1019.31 1019.42 1019.51 1019.60 1019.66 1019.72 1019.77 1019.83 1019.92 1020.04 1020.19 1020.38 1020.58 1020.79 1021.00 1021.19 1021.36 1021.51 1021.65
1016.13 1016.24 1016.40 1016.58 1016.77 1016.96 1017.15 1017.34 1017.54 1017.74 1017.96 1018.18 1018.40 1018.61 1018.78 1018.91 1018.99 1019.02 1019.02 1018.99 1018.96 1018.94 1018.94 1018.96 1019.00 1019.05 1019.11 1019.16 1019.22 1019.27 1019.33 1019.41 1019.52 1019.66 1019.83 1020.02 1020.23 1020.44 1020.63 1020.79 1020.92 1021.03 1021.13
1015.92 1016.00 1016.14 1016.31 1016.49 1016.67 1016.85 1017.02 1017.20 1017.40 1017.62 1017.87 1018.13 1018.40 1018.64 1018.84 1018.98 1019.06 1019.08 1019.05 1018.99 1018.92 1018.86 1018.81 1018.79 1018.80 1018.83 1018.86 1018.91 1018.97 1019.05 1019.14 1019.26 1019.41 1019.59 1019.78 1019.98 1020.16 1020.30 1020.42 1020.49 1020.53 1020.56
1015.83 1015.86 1015.96 1016.09 1016.24 1016.39 1016.53 1016.66 1016.81 1016.98 1017.20 1017.47 1017.77 1018.10 1018.42 1018.71 1018.94 1019.08 1019.15 1019.13 1019.07 1018.97 1018.88 1018.79 1018.73 1018.71 1018.72 1018.75 1018.80 1018.87 1018.96 1019.06 1019.19 1019.34 1019.50 1019.67 1019.83 1019.97 1020.06 1020.10 1020.09 1020.04 1019.98
1015.84 1015.83 1015.88 1015.96 1016.06 1016.14 1016.22 1016.30 1016.39 1016.53 1016.73 1017.00 1017.34 1017.73 1018.12 1018.49 1018.80 1019.02 1019.14 1019.17 1019.13 1019.05 1018.95 1018.86 1018.80 1018.77 1018.79 1018.83 1018.89 1018.97 1019.07 1019.17 1019.29 1019.42 1019.55 1019.68 1019.80 1019.87 1019.89 1019.85 1019.75 1019.61 1019.45
1015.96 1015.91 1015.90 1015.93 1015.96 1015.97 1015.98 1015.98 1016.01 1016.10 1016.26 1016.52 1016.87 1017.29 1017.74 1018.17 1018.55 1018.83 1019.02 1019.10 1019.11 1019.07 1019.01 1018.95 1018.93 1018.94 1018.99 1019.06 1019.15 1019.24 1019.34 1019.43 1019.52 1019.62 1019.71 1019.78 1019.84 1019.85 1019.80 1019.69 1019.51 1019.29 1019.04
1016.17 1016.08 1016.03 1016.00 1015.96 1015.90 1015.83 1015.76 1015.72 1015.74 1015.85 1016.08 1016.40 1016.82 1017.28 1017.73 1018.15 1018.49 1018.73 1018.88 1018.95 1018.98 1019.00 1019.02 1019.07 1019.16 1019.27 1019.40 1019.52 1019.63 1019.72 1019.80 1019.85 1019.90 1019.93 1019.95 1019.94 1019.89 1019.79 1019.62 1019.39 1019.11 1018.80
1016.45 1016.34 1016.25 1016.16 1016.07 1015.95 1015.81 1015.67 1015.55 1015.50 1015.55 1015.71 1015.98 1016.35 1016.78 1017.23 1017.64 1018.00 1018.29 1018.50 1018.65 1018.77 1018.89 1019.02 1019.18 1019.37 1019.58 1019.77 1019.95 1020.08 1020.17 1020.22 1020.24 1020.23 1020.21 1020.17 1020.11 1020.02 1019.88 1019.68 1019.42 1019.10 1018.75
1016.79 1016.66 1016.55 1016.43 1016.29 1016.12 1015.93 1015.73 1015.55 1015.43 1015.40 1015.47 1015.67 1015.96 1016.31 1016.70 1017.09 1017.44 1017.74 1017.99 1018.22 1018.44 1018.68 1018.94 1019.23 1019.55 1019.86 1020.15 1020.39 1020.56 1020.65 1020.69 1020.67 1020.62 1020.54 1020.46 1020.36 1020.24 1020.09 1019.88 1019.61 1019.29 1018.93
1017.16 1017.03 1016.90 1016.77 1016.61 1016.41 1016.19 1015.95 1015.72 1015.53 1015.42 1015.41 1015.50 1015.69 1015.95 1016.24 1016.56 1016.87 1017.16 1017.44 1017.73 1018.05 1018.40 1018.80 1019.23 1019.68 1020.11 1020.49 1020.80 1021.02 1021.14 1021.17 1021.14 1021.05 1020.95 1020.84 1020.72 1020.59 1020.43 1020.23 1019.98 1019.67 1019.33
1017.55 1017.42 1017.29 1017.15 1016.99 1016.79 1016.56 1016.30 1016.05 1015.82 1015.64 1015.55 1015.54 1015.61 1015.75 1015.93 1016.15 1016.40 1016.65 1016.94 1017.27 1017.66 1018.11 1018.63 1019.19 1019.76 1020.31 1020.79 1021.18 1021.46 1021.61 1021.67 1021.63 1021.55 1021.44 1021.32 1021.20 1021.07 1020.93 1020.75 1020.52 1020.24 1019.93
1017.90 1017.78 1017.66 1017.54 1017.40 1017.22 1017.01 1016.76 1016.51 1016.26 1016.04 1015.88 1015.78 1015.74 1015.76 1015.83 1015.95 1016.10 1016.31 1016.58 1016.92 1017.35 1017.87 1018.47 1019.12 1019.80 1020.44 1021.02 1021.49 1021.83 1022.05 1022.15 1022.15 1022.09 1022.00 1021.90 1021.80 1021.69 1021.57 1021.41 1021.21 1020.97 1020.68
1018.17 1018.07 1017.98 1017.88 1017.77 1017.64 1017.47 1017.27 1017.04 1016.80 1016.57 1016.36 1016.20 1016.07 1015.99 1015.95 1015.96 1016.04 1016.17 1016.40 1016.72 1017.16 1017.70 1018.35 1019.06 1019.80 1020.52 1021.16 1021.71 1022.12 1022.41 1022.57 1022.64 1022.64 1022.60 1022.54 1022.48 1022.40 1022.30 1022.17 1022.00 1021.78 1021.52
1018.34 1018.26 1018.19 1018.14 1018.08 1018.00 1017.89 1017.75 1017.57 1017.37 1017.15 1016.94 1016.73 1016.55 1016.39 1016.27 1016.20 1016.19 1016.25 1016.41 1016.69 1017.10 1017.63 1018.27 1019.00 1019.76 1020.51 1021.20 1021.80 1022.29 1022.66 1022.91 1023.06 1023.14 1023.18 1023.19 1023.18 1023.14 1023.08 1022.97 1022.82 1022.62 1022.39
1018.37 1018.31 1018.28 1018.26 1018.26 1018.25 1018.22 1018.15 1018.04 1017.89 1017.71 1017.52 1017.31 1017.10 1016.91 1016.73 1016.60 1016.51 1016.51 1016.61 1016.82 1017.17 1017.65 1018.24 1018.93 1019.67 1020.42 1021.13 1021.77 1022.32 1022.76 1023.10 1023.35 1023.54 1023.67 1023.76 1023.82 1023.84 1023.82 1023.74 1023.61 1023.44 1023.23
1018.25 1018.21 1018.22 1018.25 1018.31 1018.36 1018.40 1018.40 1018.37 1018.29 1018.17 1018.02 1017.84 1017.65 1017.44 1017.25 1017.08 1016.95 1016.89 1016.93 1017.07 1017.34 1017.73 1018.25 1018.86 1019.55 1020.25 1020.95 1021.60 1022.19 1022.70 1023.14 1023.49 1023.79 1024.02 1024.21 1024.35 1024.44 1024.46 1024.42 1024.32 1024.18 1024.00
1017.99 1017.99 1018.03 1018.11 1018.21 1018.32 1018.42 1018.49 1018.53 1018.52 1018.47 1018.38 1018.25 1018.10 1017.93 1017.75 1017.58 1017.44 1017.35 1017.32 1017.40 1017.58 1017.89 1018.30 1018.82 1019.41 1020.05 1020.71 1021.35 1021.96 1022.52 1023.02 1023.47 1023.87 1024.21 1024.49 1024.72 1024.88 1024.96 1024.97 1024.92 1024.81 1024.67
1017.65 1017.68 1017.76 1017.87 1018.01 1018.16 1018.30 1018.42 1018.51 1018.56 1018.58 1018.56 1018.50 1018.42 1018.31 1018.18 1018.04 1017.91 1017.81 1017.76 1017.78 1017.89 1018.10 1018.41 1018.82 1019.32 1019.87 1020.46 1021.06 1021.66 1022.25 1022.80 1023.32 1023.80 1024.23 1024.60 1024.91 1025.14 1025.29 1025.36 1025.36 1025.31 1025.22
1017.27 1017.34 1017.45 1017.58 1017.73 1017.90 1018.05 1018.20 1018.33 1018.43 1018.51 1018.56 1018.58 1018.58 1018.55 1018.49 1018.41 1018.33 1018.25 1018.20 1018.19 1018.25 1018.38 1018.60 1018.91 1019.30 1019.76 1020.28 1020.82 1021.39 1021.97 1022.54 1023.10 1023.63 1024.12 1024.55 1024.93 1025.23 1025.45 1025.58 1025.65 1025.65 1025.63
1016.91 1017.03 1017.16 1017.30 1017.45 1017.60 1017.75 1017.89 1018.03 1018.16 1018.28 1018.40 1018.51 1018.59 1018.66 1018.69 1018.70 1018.69 1018.66 1018.63 1018.62 1018.65 1018.73 1018.88 1019.11 1019.41 1019.78 1020.21 1020.68 1021.20 1021.74 1022.30 1022.85 1023.40 1023.92 1024.39 1024.81 1025.16 1025.44 1025.63 1025.76 1025.84 1025.88
1016.64 1016.80 1016.94 1017.07 1017.20 1017.32 1017.43 1017.55 1017.68 1017.82 1017.98 1018.15 1018.33 1018.51 1018.67 1018.81 1018.91 1018.97 1019.01 1019.03 1019.04 1019.06 1019.12 1019.22 1019.39 1019.62 1019.91 1020.26 1020.67 1021.12 1021.61 1022.12 1022.64 1023.16 1023.67 1024.14 1024.58 1024.96 1025.27 1025.52 1025.71 1025.85 1025.96
Thickness
5748 5748 5748 5748 5748 5749 5748 5748 5748 5747 5747 5746 5746 5745 5744 5742 5741 5740 5739 5738 5736 5735 5733 5732 5730 5729 5727 5726 5724 5723 5721 5719 5717 5716 5714 5713 5712 5710 5709 5708 5706 5705 5704
5748 5748 5747 5748 5748 5748 5748 5747 5747 5747 5747 5746 5746 5745 5744 5743 5741 5740 5739 5738 5736 5735 5733 5732 5730 5729 5727 5726 5724 5722 5721 5719 5717 5716 5714 5713 5711 5710 5708 5707 5706 5704 5703
5748 5748 5747 5747 5748 5748 5748 5747 5747 5747 5747 5746 5746 5745 5744 5743 5742 5741 5739 5738 5737 5735 5734 5732 5731 5729 5728 5726 5724 5723 5721 5719 5717 5716 5714 5713 5711 5709 5708 5706 5705 5704 5703
5749 5748 5747 5748 5748 5748 5748 5747 5747 5746 5745 5745 5744 5744 5744 5743 5742 5741 5739 5738 5737 5735 5734 5732 5731 5729 5728 5726 5725 5723 5721 5719 5717 5715 5714 5712 5711 5709 5707 5706 5704 5703 5702
5749 5748 5748 5748 5748 5747 5747 5747 5746 5745 5744 5743 5743 5743 5743 5742 5741 5741 5739 5738 5737 5735 5733 5732 5731 5729 5728 5726 5725 5723 5721 5719 5718 5716 5714 5712 5711 5709 5707 5705 5704 5703 5701
5750 5749 5748 5748 5748 5747 5746 5746 5745 5745 5743 5742 5742 5741 5740 5740 5740 5739 5738 5737 5736 5734 5733 5731 5729 5728 5727 5726 5725 5723 5721 5719 5717 5715 5713 5712 5710 5708 5707 5705 5703 5702 5700
5750 5749 5749 5748 5747 5746 5746 5745 5744 5743 5742 5741 5738 5735 5737 5738 5738 5737 5737 5736 5734 5733 5731 5730 5728 5727 5726 5725 5723 5722 5720 5718 5716 5714 5712 5711 5709 5707 5706 5704 5702 5700 5699
5751 5750 5749 5748 5747 5746 5745 5745 5743 5741 5740 5740 5736 5731 5729 5730 5733 5735 5734 5733 5732 5730 5729 5727 5726 5724 5723 5722 5721 5720 5718 5716 5715 5713 5711 5709 5708 5706 5704 5702 5701 5699 5697
5751 5749 5749 5748 5748 5746 5745 5744 5743 5741 5738 5738 5737 5733 5727 5724 5726 5728 5729 5729 5728 5727 5725 5724 5722 5721 5720 5718 5717 5716 5715 5714 5712 5711 5709 5707 5706 5704 5702 5701 5699 5697 5696
5750 5749 5748 5748 5747 5746 5745 5745 5744 5742 5739 5736 5735 5734 5733 5731 5724 5721 5723 5724 5724 5722 5721 5719 5718 5717 5716 5714 5713 5712 5711 5710 5708 5707 5706 5704 5703 5701 5699 5698 5696 5694 5693
5749 5749 5748 5748 5747 5746 5745 5744 5743 5741 5740 5737 5734 5733 5731 5729 5726 5721 5717 5717 5717 5717 5716 5715 5713 5712 5711 5710 5708 5707 5706 5705 5703 5702 5701 5700 5699 5698 5696 5694 5692 5691 5689
5748 5748 5747 5747 5746 5745 5744 5743 5742 5740 5739 5737 5735 5733 5730 5727 5723 5720 5716 5713 5711 5710 5710 5710 5708 5707 5706 5704 5703 5702 5701 5699 5697 5696 5695 5694 5693 5692 5691 5689 5687 5686 5684
5745 5745 5746 5745 5745 5744 5743 5741 5740 5738 5737 5735 5733 5731 5730 5728 5725 5721 5716 5711 5708 5706 5705 5704 5702 5701 5699 5698 5696 5696 5694 5693 5691 5690 5689 5687 5686 5685 5684 5682 5681 5680 5678
5744 5744 5744 5743 5742 5741 5741 5739 5737 5736 5735 5733 5731 5729 5727 5726 5724 5721 5717 5711 5705 5701 5699 5697 5696 5694 5693 5691 5690 5689 5687 5686 5684 5683 5682 5680 5678 5676 5675 5674 5672 5671 5670
5744 5742 5741 5740 5739 5738 5737 5736 5734 5732 5731 5730 5728 5726 5725 5723 5722 5719 5717 5713 5707 5699 5694 5692 5690 5688 5687 5685 5683 5682 5680 5678 5677 5675 5674 5672 5670 5668 5666 5665 5663 5662 5661
5742 5740 5738 5736 5735 5734 5733 5732 5730 5729 5728 5726 5725 5723 5721 5720 5718 5716 5713 5711 5708 5702 5693 5689 5685 5682 5681 5680 5677 5675 5673 5671 5669 5667 5665 5663 5661 5659 5657 5655 5653 5652 5651
5739 5737 5735 5733 5731 5730 5729 5727 5726 5724 5723 5722 5721 5719 5717 5716 5714 5712 5709 5707 5703 5700 5691 5684 5680 5677 5674 5672 5669 5668 5665 5664 5661 5659 5657 5654 5652 5650 5647 5645 5643 5641 5640
5736 5734 5732 5729 5727 5725 5724 5723 5721 5720 5718 5717 5715 5714 5712 5711 5709 5707 5705 5701 5698 5695 5690 5681 5675 5671 5668 5665 5663 5661 5658 5656 5653 5650 5648 5646 5643 5641 5638 5636 5633 5631 5629
5733 5730 5728 5726 5723 5721 5719 5718 5716 5715 5713 5711 5710 5708 5707 5706 5703 5701 5699 5696 5692 5689 5685 5679 5671 5666 5662 5659 5656 5653 5650 5647 5644 5641 5639 5636 5634 5632 5629 5626 5623 5621 5619
5730 5727 5724 5722 5720 5718 5715 5713 5711 5710 5708 5706 5705 5703 5702 5700 5698 5696 5693 5690 5687 5682 5677 5673 5666 5661 5656 5653 5650 5647 5642 5639 5636 5633 5630 5627 5625 5622 5620 5617 5614 5611 5608
5726 5723 5721 5717 5715 5714 5711 5709 5707 5705 5703 5701 5699 5698 5696 5695 5693 5691 5688 5685 5681 5676 5671 5667 5661 5656 5651 5647 5645 5641 5637 5633 5629 5625 5622 5619 5616 5614 5610 5607 5604 5601 5598
5721 5719 5716 5713 5711 5709 5706 5705 5703 5700 5698 5696 5693 5691 5690 5689 5687 5685 5682 5680 5677 5672 5667 5662 5657 5652 5647 5643 5639 5636 5632 5628 5623 5618 5615 5612 5608 5605 5601 5598 5595 5592 5589
5717 5714 5711 5709 5706 5703 5701 5700 5698 5695 5692 5690 5687 5686 5685 5683 5681 5679 5676 5673 5669 5666 5663 5659 5654 5649 5644 5640 5635 5631 5626 5623 5618 5612 5608 5605 5600 5597 5593 5589 5586 5583 5580
5713 5710 5706 5704 5701 5699 5696 5694 5692 5689 5686 5683 5681 5680 5678 5676 5675 5672 5670 5665 5661 5658 5656 5653 5649 5645 5641 5636 5632 5627 5622 5615 5610 5605 5601 5598 5593 5589 5586 5582 5578 5575 5572
5708 5705 5702 5699 5696 5693 5691 5689 5687 5683 5680 5677 5675 5673 5672 5670 5668 5666 5663 5659 5655 5651 5648 5645 5642 5638 5634 5630 5625 5620 5614 5611 5606 5600 5595 5592 5587 5582 5579 5575 5571 5568 5564
5704 5701 5697 5694 5692 5689 5686 5683 5681 5678 5674 5671 5668 5666 5665 5664 5662 5659 5656 5653 5648 5644 5641 5638 5634 5630 5626 5622 5618 5614 5610 5605 5601 5596 5590 5585 5582 5577 5574 5569 5565 5561 5558